This is the latest recevied weather packets stored in our database for station/object KQ4NAL. If no packets are shown the sender has not sent any weather packets the latest 10 day(s).
| Time | Temp. | Humidity | Pressure | Rain* | Wind** | Luminosity | Snow |
|---|---|---|---|---|---|---|---|
| 1778198832 | 12.78° C | 56% | 1015.3 hPa | 0 mm | - | 19 W/m² | - |
| 1778198529 | 12.78° C | 55% | 1015.2 hPa | 0 mm | - | 22 W/m² | - |
| 1778198225 | 13.89° C | 50% | 1015.1 hPa | 0 mm | - | 24 W/m² | - |
| 1778197922 | 14.44° C | 51% | 1015 hPa | 0 mm | - | 31 W/m² | - |
| 1778197619 | 14.44° C | 47% | 1015.2 hPa | 0 mm | - | 32 W/m² | - |
| 1778197316 | 15° C | 41% | 1015.1 hPa | 0 mm | - | 36 W/m² | - |
| 1778197013 | 15° C | 41% | 1015 hPa | 0 mm | - | 46 W/m² | - |
| 1778196711 | 15.56° C | 41% | 1015.2 hPa | 0 mm | - | 53 W/m² | - |
| 1778196408 | 16.11° C | 41% | 1015.1 hPa | 0 mm | - | 75 W/m² | - |
| 1778196105 | 16.11° C | 39% | 1015 hPa | 0 mm | - | 93 W/m² | - |
| 1778195801 | 16.11° C | 40% | 1015.1 hPa | 0 mm | - | 99 W/m² | - |
| 1778195499 | 16.11° C | 38% | 1015 hPa | 0 mm | - | 119 W/m² | - |
| 1778195195 | 16.67° C | 37% | 1015 hPa | 0 mm | - | 139 W/m² | - |
| 1778194892 | 16.67° C | 42% | 1014.9 hPa | 0 mm | - | 144 W/m² | - |
| 1778194592 | 15.56° C | 41% | 1015.2 hPa | 0 mm | - | 161 W/m² | - |
| 1778194289 | 16.67° C | 39% | 1015.2 hPa | 0 mm | - | 181 W/m² | - |
| 1778193984 | 15.56° C | 38% | 1015.1 hPa | 0 mm | - | 198 W/m² | - |
| 1778193681 | 16.11° C | 37% | 1015.1 hPa | 0 mm | - | 203 W/m² | - |
| 1778193377 | 16.11° C | 38% | 1015.1 hPa | 0 mm | - | 213 W/m² | - |
| 1778193074 | 16.11° C | 38% | 1015 hPa | 0 mm | - | 239 W/m² | - |
| 1778192771 | 16.11° C | 40% | 1015.1 hPa | 0 mm | - | 271 W/m² | - |
| 1778192468 | 16.11° C | 37% | 1015 hPa | 0 mm | - | 299 W/m² | - |
| 1778192164 | 16.67° C | 38% | 1014.8 hPa | 0 mm | - | 311 W/m² | - |
| 1778191861 | 16.11° C | 39% | 1015.2 hPa | 0 mm | - | 311 W/m² | - |
| 1778191558 | 17.22° C | 37% | 1015.3 hPa | 0 mm | - | 318 W/m² | - |
* Rain latest hour (hover to see other rain measurements)
** Current wind speed in m/s (hover to see current wind gust speed)